{"data":{"norad_id":53980,"epoch":"2026-09-20T22:00:03.000096Z","epoch_age_seconds":50613,"freshness":"FRESH","line1":"1 53980U 22125S   26263.91670139  .00059855  00000+0  18187-2 0  9990","line2":"2 53980  53.1592  59.6623 0001056  54.4565 142.9714 15.33515298  5807","mean_motion":15.33515298,"eccentricity":0.0001056,"inclination_deg":53.1592,"raan_deg":59.6623,"arg_perigee_deg":54.4565,"mean_anomaly_deg":142.9714,"bstar":0.0018187,"rev_number":580,"period_min":93.901899894839,"perigee_km":464.61135453877,"apogee_km":466.05669561927,"semimajor_km":6843.471025079,"source":"CELESTRAK","updated_at":"2026-09-21T09:00:33.042437Z"}}